Flag for Germany Weather past 2 weeks in Saalfeld/Saale, Thuringia, Germany

Now
43 °F

Broken clouds.


Feels Like: 36 °F
Forecast: 38 / 51 °F
Wind: 14 mph from West

Location: Erfurt-Bindersleben

Current Time: Mar 27, 2015 at 5:36:59 PM

Latest Report: Mar 27, 2015 at 5:20 PM


Visibility: N/A

Pressure: 30.04 "Hg

Humidity: 81%

Dew point: 37 °F

Location of Saalfeld/SaaleLocation

Historic Weather in Saalfeld/Saale — Graph

°F

Saalfeld/Saale temperature yesterday

Maximum temperature yesterday: 46 °F (at 2:50 PM)
Minimum temperature yesterday: 39 °F (at 11:20 PM)
Average temperature yesterday: 43 °F

Past Weeks' High & Low Weather Summary

 TemperatureHumidityPressure
High63 °F (Mar 25, 3:50 PM)100% (Mar 12, 9:50 PM)30.42 "Hg (Mar 12, 9:50 PM)
Low27 °F (Mar 20, 5:50 AM)30% (Mar 20, 2:50 PM)29.59 "Hg (Mar 25, 9:50 PM)
Average40 °F82%30.11 "Hg
* Reported Mar 12 4:20 PM — Mar 27 4:20 PM, Saalfeld/Saale, Weather by CustomWeather, © 2015

Note: Actual official high and low records may vary slightly from our data, if they occured in-between our weather recording intervals... More about our weather records

Advertising

Saalfeld/Saale weather history for previous 24 hours

 ConditionsComfort  
Time TempWeatherWind HumidityBarometerVisibility
4:20 PM
Fri, Mar 27
41 °FSprinkles. Partly sunny.16 mph87%30.01 "HgN/A
3:50 PM41 °FSprinkles. Partly sunny.17 mph87%30.01 "HgN/A
3:20 PM45 °FLight rain. Broken clouds.17 mph71%30.01 "HgN/A
2:50 PM46 °FBroken clouds.17 mph66%29.98 "HgN/A
2:20 PM43 °FLight rain. Partly sunny.20 mph76%29.98 "HgN/A
1:50 PM45 °FLight rain. Partly sunny.20 mph66%29.98 "HgN/A
1:20 PM46 °FBroken clouds.22 mph62%29.95 "HgN/A
12:50 PM46 °FBroken clouds.21 mph66%29.95 "HgN/A
12:20 PM48 °FScattered clouds.21 mph62%29.95 "HgN/A
11:50 AM46 °FSprinkles. Partly sunny.20 mph66%29.95 "HgN/A
11:20 AM45 °FSprinkles. Partly sunny.17 mph71%29.95 "HgN/A
10:50 AM46 °FPartly sunny.16 mph66%29.92 "HgN/A
10:20 AM45 °FSprinkles. Partly sunny.16 mph71%29.92 "HgN/A
9:50 AM46 °FPartly sunny.17 mph66%29.92 "HgN/A
9:20 AM45 °FScattered clouds.15 mph71%29.92 "HgN/A
8:50 AM45 °FPartly sunny.14 mph76%29.89 "HgN/A
8:20 AM43 °FScattered clouds.12 mph81%29.89 "HgN/A
7:50 AM41 °FPartly sunny.14 mph87%29.89 "HgN/A
7:20 AM39 °FPartly sunny.12 mph87%29.89 "HgN/A
6:50 AM39 °FScattered clouds.9 mph87%29.86 "HgN/A
6:20 AM39 °FPartly sunny.13 mph87%29.86 "HgN/A
5:50 AM37 °FPassing clouds.10 mph93%29.83 "HgN/A
5:20 AM37 °FPassing clouds.10 mph93%29.83 "HgN/A
4:20 AM39 °FLight rain. Passing clouds.18 mph93%29.80 "HgN/A
3:50 AM39 °FLight rain. Passing clouds.13 mph93%29.80 "HgN/A
3:20 AM39 °FLight rain. Passing clouds.12 mph87%29.80 "HgN/A
2:50 AM39 °FLight rain. Passing clouds.13 mph87%29.80 "HgN/A
2:20 AM39 °FPassing clouds.13 mph87%29.77 "HgN/A
1:50 AM39 °FPassing clouds.12 mph87%29.77 "HgN/A
1:20 AM39 °FPassing clouds.12 mph87%29.77 "HgN/A
12:50 AM39 °FLight rain. Partly cloudy.12 mph87%29.77 "HgN/A
12:20 AM39 °FLight rain. Passing clouds.9 mph87%29.77 "HgN/A
11:50 PM
Thu, Mar 26
39 °FPassing clouds.8 mph87%29.77 "HgN/A
11:20 PM39 °FLight rain. Partly cloudy.8 mph93%29.80 "HgN/A
10:50 PM41 °FLight rain. Passing clouds.12 mph87%29.80 "HgN/A
10:20 PM43 °FLight rain. Passing clouds.12 mph76%29.77 "HgN/A
9:50 PM43 °FPartly cloudy.7 mph76%29.77 "HgN/A
9:20 PM43 °FClear.9 mph76%29.77 "Hg10 mi
8:50 PM43 °FPartly cloudy.9 mph76%29.77 "HgN/A
8:20 PM43 °FPassing clouds.7 mph76%29.77 "HgN/A
7:50 PM43 °FPassing clouds.7 mph76%29.77 "HgN/A
7:20 PM43 °FPassing clouds.6 mph76%29.74 "HgN/A
6:50 PM43 °FPartly cloudy.6 mph76%29.74 "HgN/A
6:20 PM43 °FBroken clouds.5 mph81%29.74 "HgN/A
5:50 PM45 °FBroken clouds.6 mph76%29.74 "HgN/A
5:20 PM45 °FBroken clouds.7 mph76%29.74 "HgN/A
Weather by CustomWeather, © 2015

See weather overviewHow to use our weather pages